Time,TemperatureF,DewpointF,PressureIn,WindDirection,WindDirectionDegrees,WindSpeedMPH,WindSpeedGustMPH,Humidity,HourlyPrecipIn,Conditions,Clouds,dailyrainin,SoftwareType,DateUTC
2013-11-13 00:03:00,65.7,36.6,30.09,North,0,1.1,1.1,34,0.00,,---,0.00,VWS V14.01,2013-11-13 07:03:00,
2013-11-13 00:08:00,65.7,36.6,30.09,North,0,2.0,2.0,34,0.00,,---,0.00,VWS V14.01,2013-11-13 07:08:00,
2013-11-13 00:13:00,65.7,36.6,30.09,NNW,338,2.5,2.5,34,0.00,,---,0.00,VWS V14.01,2013-11-13 07:13:00,
2013-11-13 00:18:00,65.8,36.7,30.09,NW,315,2.5,2.5,34,0.00,,---,0.00,VWS V14.01,2013-11-13 07:18:00,
2013-11-13 00:23:00,66.0,36.9,30.09,NNW,338,2.0,2.0,34,0.00,,---,0.00,VWS V14.01,2013-11-13 07:23:00,
2013-11-13 00:28:00,66.0,36.9,30.09,NNW,338,0.9,0.9,34,0.00,,---,0.00,VWS V14.01,2013-11-13 07:28:00,
2013-11-13 00:33:00,66.2,36.3,30.09,NW,315,1.3,1.3,33,0.00,,---,0.00,VWS V14.01,2013-11-13 07:33:00,
2013-11-13 00:38:00,66.4,36.4,30.09,NW,315,2.5,2.5,33,0.00,,---,0.00,VWS V14.01,2013-11-13 07:38:00,
2013-11-13 00:43:00,66.4,36.4,30.09,WNW,292,0.0,0.9,33,0.00,,---,0.00,VWS V14.01,2013-11-13 07:43:00,
2013-11-13 00:48:00,66.2,36.3,30.09,WNW,292,0.0,0.0,33,0.00,,---,0.00,VWS V14.01,2013-11-13 07:48:00,
2013-11-13 00:53:00,66.0,36.9,30.09,NNW,338,0.9,0.9,34,0.00,,---,0.00,VWS V14.01,2013-11-13 07:53:00,
2013-11-13 00:58:00,66.0,36.9,30.09,North,0,0.0,0.0,34,0.00,,---,0.00,VWS V14.01,2013-11-13 07:58:00,
2013-11-13 01:03:00,66.0,36.9,30.09,North,0,0.0,0.0,34,0.00,,---,0.00,VWS V14.01,2013-11-13 08:03:00,
2013-11-13 01:08:00,65.8,36.7,30.09,North,0,0.9,2.0,34,0.00,,---,0.00,VWS V14.01,2013-11-13 08:08:00,
2013-11-13 01:13:00,65.7,36.6,30.09,North,0,2.2,2.2,34,0.00,,---,0.00,VWS V14.01,2013-11-13 08:13:00,
2013-11-13 01:18:00,65.7,36.6,30.09,NW,315,1.3,1.3,34,0.00,,---,0.00,VWS V14.01,2013-11-13 08:18:00,
2013-11-13 01:23:00,65.5,36.4,30.09,ENE,68,0.0,0.0,34,0.00,,---,0.00,VWS V14.01,2013-11-13 08:23:00,
2013-11-13 01:28:00,65.3,36.2,30.09,WSW,248,0.0,1.3,34,0.00,,---,0.00,VWS V14.01,2013-11-13 08:28:00,
2013-11-13 01:33:00,64.8,35.8,30.09,NW,315,1.1,1.6,34,0.00,,---,0.00,VWS V14.01,2013-11-13 08:33:00,
2013-11-13 01:38:00,64.8,35.8,30.09,NNW,338,1.1,1.3,34,0.00,,---,0.00,VWS V14.01,2013-11-13 08:38:00,
2013-11-13 01:43:00,64.8,35.8,30.09,East,90,0.9,0.9,34,0.00,,---,0.00,VWS V14.01,2013-11-13 08:43:00,
2013-11-13 01:48:00,64.8,35.8,30.09,North,0,0.9,1.3,34,0.00,,---,0.00,VWS V14.01,2013-11-13 08:48:00,
2013-11-13 01:53:00,64.8,35.8,30.09,NW,315,1.1,1.1,34,0.00,,---,0.00,VWS V14.01,2013-11-13 08:53:00,
2013-11-13 01:58:00,64.4,35.5,30.09,NW,315,0.0,0.0,34,0.00,,---,0.00,VWS V14.01,2013-11-13 08:58:00,
2013-11-13 02:03:00,64.0,35.1,30.09,NNE,22,1.3,1.3,34,0.00,,---,0.00,VWS V14.01,2013-11-13 09:03:00,
2013-11-13 02:08:00,64.0,35.1,30.09,NW,315,0.0,1.1,34,0.00,,---,0.00,VWS V14.01,2013-11-13 09:08:00,
2013-11-13 02:13:00,63.9,35.0,30.09,NW,315,0.0,0.0,34,0.00,,---,0.00,VWS V14.01,2013-11-13 09:13:00,
2013-11-13 02:18:00,63.5,34.7,30.09,NE,45,0.0,0.0,34,0.00,,---,0.00,VWS V14.01,2013-11-13 09:18:00,
2013-11-13 02:23:00,63.3,34.5,30.09,NNW,338,0.0,0.0,34,0.00,,---,0.00,VWS V14.01,2013-11-13 09:23:00,
2013-11-13 02:28:00,63.0,34.9,30.09,NNW,338,1.3,1.3,35,0.00,,---,0.00,VWS V14.01,2013-11-13 09:28:00,
2013-11-13 02:33:00,63.0,34.9,30.09,NW,315,1.3,1.3,35,0.00,,---,0.00,VWS V14.01,2013-11-13 09:33:00,
2013-11-13 02:38:00,62.8,34.8,30.06,NNW,338,2.7,2.7,35,0.00,,---,0.00,VWS V14.01,2013-11-13 09:38:00,
2013-11-13 02:43:00,62.8,34.8,30.06,North,0,0.0,0.0,35,0.00,,---,0.00,VWS V14.01,2013-11-13 09:43:00,
2013-11-13 02:48:00,62.4,34.4,30.06,North,0,0.0,0.0,35,0.00,,---,0.00,VWS V14.01,2013-11-13 09:48:00,
2013-11-13 02:53:00,62.2,35.0,30.06,NNW,338,1.3,1.3,36,0.00,,---,0.00,VWS V14.01,2013-11-13 09:53:00,
2013-11-13 02:58:00,62.1,35.5,30.06,NNW,338,1.1,1.1,37,0.00,,---,0.00,VWS V14.01,2013-11-13 09:58:00,
2013-11-13 03:03:00,61.9,34.7,30.06,NW,315,1.3,1.6,36,0.00,,---,0.00,VWS V14.01,2013-11-13 10:03:00,
2013-11-13 03:08:00,61.9,34.7,30.06,NW,315,0.0,0.0,36,0.00,,---,0.00,VWS V14.01,2013-11-13 10:08:00,
2013-11-13 03:13:00,62.1,34.8,30.06,NW,315,0.0,0.0,36,0.00,,---,0.00,VWS V14.01,2013-11-13 10:13:00,
2013-11-13 03:18:00,61.9,34.7,30.06,ENE,68,0.0,0.0,36,0.00,,---,0.00,VWS V14.01,2013-11-13 10:18:00,
2013-11-13 03:23:00,61.5,34.3,30.06,SE,135,2.2,2.2,36,0.00,,---,0.00,VWS V14.01,2013-11-13 10:23:00,
2013-11-13 03:28:00,61.2,34.0,30.06,East,90,2.5,2.5,36,0.00,,---,0.00,VWS V14.01,2013-11-13 10:28:00,
2013-11-13 03:33:00,61.0,33.9,30.06,SE,135,1.3,1.3,36,0.00,,---,0.00,VWS V14.01,2013-11-13 10:33:00,
2013-11-13 03:38:00,61.0,33.9,30.06,SE,135,0.0,0.0,36,0.00,,---,0.00,VWS V14.01,2013-11-13 10:38:00,
2013-11-13 03:43:00,60.6,34.9,30.06,NW,315,1.3,1.3,38,0.00,,---,0.00,VWS V14.01,2013-11-13 10:43:00,
2013-11-13 03:48:00,60.4,34.1,30.06,NNW,338,0.0,0.0,37,0.00,,---,0.00,VWS V14.01,2013-11-13 10:48:00,
2013-11-13 03:53:00,60.4,34.1,30.06,NNW,338,0.0,0.0,37,0.00,,---,0.00,VWS V14.01,2013-11-13 10:53:00,
2013-11-13 03:58:00,60.3,34.6,30.06,WNW,292,0.0,1.3,38,0.00,,---,0.00,VWS V14.01,2013-11-13 10:58:00,
2013-11-13 04:03:00,60.3,34.6,30.06,WNW,292,0.0,0.0,38,0.00,,---,0.00,VWS V14.01,2013-11-13 11:03:00,
2013-11-13 04:08:00,59.9,34.9,30.06,NNW,338,0.0,0.0,39,0.00,,---,0.00,VWS V14.01,2013-11-13 11:08:00,
2013-11-13 04:13:00,59.9,34.9,30.06,NNW,338,0.0,0.0,39,0.00,,---,0.00,VWS V14.01,2013-11-13 11:13:00,
2013-11-13 04:18:00,60.4,36.7,30.06,NW,315,1.3,2.2,41,0.00,,---,0.00,VWS V14.01,2013-11-13 11:18:00,
2013-11-13 04:23:00,60.8,36.3,30.06,NNW,338,0.9,0.9,40,0.00,,---,0.00,VWS V14.01,2013-11-13 11:23:00,
2013-11-13 04:28:00,61.0,35.9,30.06,NW,315,0.0,0.0,39,0.00,,---,0.00,VWS V14.01,2013-11-13 11:28:00,
2013-11-13 04:33:00,61.0,35.9,30.06,SSW,202,2.0,2.0,39,0.00,,---,0.00,VWS V14.01,2013-11-13 11:33:00,
2013-11-13 04:38:00,60.6,35.5,30.06,East,90,0.0,0.0,39,0.00,,---,0.00,VWS V14.01,2013-11-13 11:38:00,
2013-11-13 04:43:00,60.4,35.4,30.06,ENE,68,0.0,0.0,39,0.00,,---,0.00,VWS V14.01,2013-11-13 11:43:00,
2013-11-13 04:48:00,60.3,35.2,30.06,South,180,0.0,0.0,39,0.00,,---,0.00,VWS V14.01,2013-11-13 11:48:00,
2013-11-13 04:53:00,60.1,35.7,30.06,South,180,0.0,0.0,40,0.00,,---,0.00,VWS V14.01,2013-11-13 11:53:00,
2013-11-13 04:58:00,60.1,35.7,30.06,East,90,1.6,1.6,40,0.00,,---,0.00,VWS V14.01,2013-11-13 11:58:00,
2013-11-13 05:03:00,60.1,35.7,30.06,North,0,0.0,0.0,40,0.00,,---,0.00,VWS V14.01,2013-11-13 12:03:00,
2013-11-13 05:08:00,60.3,36.5,30.06,North,0,1.6,2.2,41,0.00,,---,0.00,VWS V14.01,2013-11-13 12:08:00,
2013-11-13 05:13:00,60.6,37.4,30.06,North,0,2.2,2.2,42,0.00,,---,0.00,VWS V14.01,2013-11-13 12:13:00,
2013-11-13 05:18:00,60.6,36.2,30.06,NNW,338,1.6,2.0,40,0.00,,---,0.00,VWS V14.01,2013-11-13 12:18:00,
2013-11-13 05:23:00,61.0,37.8,30.06,NNW,338,1.6,1.6,42,0.00,,---,0.00,VWS V14.01,2013-11-13 12:23:00,
2013-11-13 05:28:00,61.0,37.1,30.06,NNW,338,1.3,1.3,41,0.00,,---,0.00,VWS V14.01,2013-11-13 12:28:00,
2013-11-13 05:33:00,61.0,36.5,30.06,NW,315,0.0,0.0,40,0.00,,---,0.00,VWS V14.01,2013-11-13 12:33:00,
2013-11-13 05:38:00,61.0,36.5,30.06,NE,45,1.6,2.2,40,0.00,,---,0.00,VWS V14.01,2013-11-13 12:38:00,
2013-11-13 05:43:00,61.0,36.5,30.06,NNE,22,0.0,0.0,40,0.00,,---,0.00,VWS V14.01,2013-11-13 12:43:00,
2013-11-13 05:48:00,60.8,37.0,30.06,North,0,1.1,1.1,41,0.00,,---,0.00,VWS V14.01,2013-11-13 12:48:00,
2013-11-13 05:53:00,61.0,37.1,30.06,NNW,338,1.6,1.6,41,0.00,,---,0.00,VWS V14.01,2013-11-13 12:53:00,
2013-11-13 05:58:00,61.0,36.5,30.06,NNW,338,1.1,1.1,40,0.00,,---,0.00,VWS V14.01,2013-11-13 12:58:00,
2013-11-13 06:03:00,61.2,37.3,30.06,NNW,338,1.3,1.6,41,0.00,,---,0.00,VWS V14.01,2013-11-13 13:03:00,
2013-11-13 06:08:00,61.2,36.7,30.06,NNW,338,0.0,0.0,40,0.00,,---,0.00,VWS V14.01,2013-11-13 13:08:00,
2013-11-13 06:13:00,61.2,36.0,30.06,NNW,338,0.0,0.0,39,0.00,,---,0.00,VWS V14.01,2013-11-13 13:13:00,
2013-11-13 06:18:00,61.0,36.5,30.06,North,0,1.1,1.1,40,0.00,,---,0.00,VWS V14.01,2013-11-13 13:18:00,
2013-11-13 06:23:00,60.8,37.6,30.06,North,0,1.6,1.6,42,0.00,,---,0.00,VWS V14.01,2013-11-13 13:23:00,
2013-11-13 06:28:00,60.8,37.6,30.06,North,0,1.3,1.3,42,0.00,,---,0.00,VWS V14.01,2013-11-13 13:28:00,
2013-11-13 06:33:00,61.0,38.3,30.06,NNW,338,1.6,1.6,43,0.00,,---,0.00,VWS V14.01,2013-11-13 13:33:00,
2013-11-13 06:38:00,61.3,38.1,30.06,North,0,1.1,2.5,42,0.00,,---,0.00,VWS V14.01,2013-11-13 13:38:00,
2013-11-13 06:43:00,61.3,37.5,30.06,NNW,338,0.0,0.0,41,0.00,,---,0.00,VWS V14.01,2013-11-13 13:43:00,
2013-11-13 06:48:00,61.3,37.5,30.06,NNW,338,0.0,0.0,41,0.00,,---,0.00,VWS V14.01,2013-11-13 13:48:00,
2013-11-13 06:53:00,61.2,37.3,30.06,NNW,338,0.0,1.3,41,0.00,,---,0.00,VWS V14.01,2013-11-13 13:53:00,
2013-11-13 06:58:00,61.0,37.1,30.06,NNW,338,1.3,1.3,41,0.00,,---,0.00,VWS V14.01,2013-11-13 13:58:00,
2013-11-13 07:03:00,60.8,37.6,30.06,North,0,2.2,2.2,42,0.00,,---,0.00,VWS V14.01,2013-11-13 14:03:00,
2013-11-13 07:08:00,60.6,38.0,30.06,North,0,1.3,1.3,43,0.00,,---,0.00,VWS V14.01,2013-11-13 14:08:00,
2013-11-13 07:13:00,60.4,37.3,30.06,NNE,22,0.9,0.9,42,0.00,,---,0.00,VWS V14.01,2013-11-13 14:13:00,
2013-11-13 07:18:00,60.3,37.1,30.06,ENE,68,3.1,3.1,42,0.00,,---,0.00,VWS V14.01,2013-11-13 14:18:00,
2013-11-13 07:23:00,60.3,38.3,30.09,NNW,338,2.5,2.7,44,0.00,,---,0.00,VWS V14.01,2013-11-13 14:23:00,
2013-11-13 07:28:00,60.3,37.7,30.09,North,0,1.6,1.6,43,0.00,,---,0.00,VWS V14.01,2013-11-13 14:28:00,
2013-11-13 07:33:00,60.1,38.1,30.09,NNW,338,1.1,1.1,44,0.00,,---,0.00,VWS V14.01,2013-11-13 14:33:00,
2013-11-13 07:38:00,60.1,38.1,30.06,NNW,338,1.1,2.0,44,0.00,,---,0.00,VWS V14.01,2013-11-13 14:38:00,
2013-11-13 07:43:00,60.1,38.7,30.06,North,0,2.2,2.2,45,0.00,,---,0.00,VWS V14.01,2013-11-13 14:43:00,
2013-11-13 07:48:00,60.1,38.7,30.06,North,0,2.0,2.0,45,0.00,,---,0.00,VWS V14.01,2013-11-13 14:48:00,
2013-11-13 07:53:00,60.1,38.7,30.09,North,0,0.0,1.3,45,0.00,,---,0.00,VWS V14.01,2013-11-13 14:53:00,
2013-11-13 07:58:00,59.9,38.5,30.09,NNW,338,0.9,1.6,45,0.00,,---,0.00,VWS V14.01,2013-11-13 14:58:00,
2013-11-13 08:03:00,59.7,37.8,30.09,North,0,0.0,0.0,44,0.00,,---,0.00,VWS V14.01,2013-11-13 15:03:00,
2013-11-13 08:08:00,59.5,38.8,30.09,North,0,1.3,2.0,46,0.00,,---,0.00,VWS V14.01,2013-11-13 15:08:00,
2013-11-13 08:13:00,59.7,38.9,30.09,North,0,1.1,1.1,46,0.00,,---,0.00,VWS V14.01,2013-11-13 15:13:00,
2013-11-13 08:18:00,60.1,39.2,30.09,NNE,22,2.7,2.7,46,0.00,,---,0.00,VWS V14.01,2013-11-13 15:18:00,
2013-11-13 08:23:00,60.8,39.9,30.09,NNE,22,2.9,2.9,46,0.00,,---,0.00,VWS V14.01,2013-11-13 15:23:00,
2013-11-13 08:28:00,61.5,40.6,30.09,North,0,1.1,1.6,46,0.00,,---,0.00,VWS V14.01,2013-11-13 15:28:00,
2013-11-13 08:33:00,62.6,40.4,30.09,NNW,338,0.0,2.0,44,0.00,,---,0.00,VWS V14.01,2013-11-13 15:33:00,
2013-11-13 08:38:00,63.5,41.2,30.09,SW,225,2.0,2.0,44,0.00,,---,0.00,VWS V14.01,2013-11-13 15:38:00,
2013-11-13 08:43:00,63.9,41.5,30.09,North,0,1.1,1.1,44,0.00,,---,0.00,VWS V14.01,2013-11-13 15:43:00,
2013-11-13 08:48:00,64.9,41.9,30.09,NNW,338,0.0,0.0,43,0.00,,---,0.00,VWS V14.01,2013-11-13 15:48:00,
2013-11-13 08:53:00,65.7,42.6,30.09,WSW,248,1.1,1.1,43,0.00,,---,0.00,VWS V14.01,2013-11-13 15:53:00,
2013-11-13 08:58:00,66.4,42.0,30.09,NW,315,0.0,0.0,41,0.00,,---,0.00,VWS V14.01,2013-11-13 15:58:00,
2013-11-13 09:03:00,67.1,41.3,30.09,NW,315,0.9,0.9,39,0.00,,---,0.00,VWS V14.01,2013-11-13 16:03:00,
2013-11-13 09:08:00,67.6,40.5,30.09,WNW,292,0.9,1.1,37,0.00,,---,0.00,VWS V14.01,2013-11-13 16:08:00,
2013-11-13 09:13:00,68.0,40.1,30.09,North,0,1.1,2.5,36,0.00,,---,0.00,VWS V14.01,2013-11-13 16:13:00,
2013-11-13 09:18:00,68.5,41.3,30.09,SE,135,3.4,3.4,37,0.00,,---,0.00,VWS V14.01,2013-11-13 16:18:00,
2013-11-13 09:23:00,69.8,41.7,30.09,ESE,112,3.1,3.1,36,0.00,,---,0.00,VWS V14.01,2013-11-13 16:23:00,
2013-11-13 09:28:00,70.7,42.5,30.09,SE,135,2.7,3.1,36,0.00,,---,0.00,VWS V14.01,2013-11-13 16:28:00,
2013-11-13 09:33:00,71.6,41.8,30.09,SE,135,3.4,3.4,34,0.00,,---,0.00,VWS V14.01,2013-11-13 16:33:00,
2013-11-13 09:38:00,72.3,42.4,30.09,SE,135,3.1,4.0,34,0.00,,---,0.00,VWS V14.01,2013-11-13 16:38:00,
2013-11-13 09:43:00,72.9,42.1,30.09,East,90,3.8,3.8,33,0.00,,---,0.00,VWS V14.01,2013-11-13 16:43:00,
2013-11-13 09:48:00,73.0,42.3,30.09,SE,135,2.5,2.5,33,0.00,,---,0.00,VWS V14.01,2013-11-13 16:48:00,
2013-11-13 09:53:00,73.8,42.9,30.06,SE,135,2.5,3.6,33,0.00,,---,0.00,VWS V14.01,2013-11-13 16:53:00,
2013-11-13 09:58:00,74.5,42.7,30.06,East,90,3.1,3.1,32,0.00,,---,0.00,VWS V14.01,2013-11-13 16:58:00,
2013-11-13 10:03:00,75.0,43.2,30.06,East,90,0.0,0.0,32,0.00,,---,0.00,VWS V14.01,2013-11-13 17:03:00,
2013-11-13 10:08:00,75.6,43.7,30.06,ESE,112,2.5,2.5,32,0.00,,---,0.00,VWS V14.01,2013-11-13 17:08:00,
2013-11-13 10:13:00,76.1,43.3,30.06,East,90,1.1,1.1,31,0.00,,---,0.00,VWS V14.01,2013-11-13 17:13:00,
2013-11-13 10:18:00,76.6,43.8,30.06,SE,135,2.0,2.0,31,0.00,,---,0.00,VWS V14.01,2013-11-13 17:18:00,
2013-11-13 10:23:00,77.5,44.5,30.06,ESE,112,3.6,3.6,31,0.00,,---,0.00,VWS V14.01,2013-11-13 17:23:00,
2013-11-13 10:28:00,78.1,45.0,30.06,SE,135,4.0,4.0,31,0.00,,---,0.00,VWS V14.01,2013-11-13 17:28:00,
2013-11-13 10:33:00,78.6,44.6,30.06,ENE,68,2.7,3.6,30,0.00,,---,0.00,VWS V14.01,2013-11-13 17:33:00,
2013-11-13 10:38:00,79.2,45.1,30.06,SSE,158,4.0,6.0,30,0.00,,---,0.00,VWS V14.01,2013-11-13 17:38:00,
2013-11-13 10:43:00,79.5,45.4,30.06,SSE,158,2.5,3.8,30,0.00,,---,0.00,VWS V14.01,2013-11-13 17:43:00,
2013-11-13 10:48:00,79.9,45.7,30.06,West,270,2.5,2.5,30,0.00,,---,0.00,VWS V14.01,2013-11-13 17:48:00,
2013-11-13 10:53:00,80.1,45.9,30.06,SSW,202,2.5,2.5,30,0.00,,---,0.00,VWS V14.01,2013-11-13 17:53:00,
2013-11-13 10:58:00,79.7,43.8,30.06,SW,225,4.0,4.0,28,0.00,,---,0.00,VWS V14.01,2013-11-13 17:58:00,
2013-11-13 11:03:00,79.2,42.3,30.06,SSE,158,3.8,7.8,27,0.00,,---,0.00,VWS V14.01,2013-11-13 18:03:00,
2013-11-13 11:08:00,79.2,42.3,30.03,SE,135,6.5,6.5,27,0.00,,---,0.00,VWS V14.01,2013-11-13 18:08:00,
2013-11-13 11:13:00,79.2,42.3,30.03,SSW,202,2.9,2.9,27,0.00,,---,0.00,VWS V14.01,2013-11-13 18:13:00,
2013-11-13 11:18:00,79.0,42.2,30.03,SSE,158,3.4,7.2,27,0.00,,---,0.00,VWS V14.01,2013-11-13 18:18:00,
2013-11-13 11:23:00,78.6,41.9,30.03,WSW,248,4.3,4.3,27,0.00,,---,0.00,VWS V14.01,2013-11-13 18:23:00,
2013-11-13 11:28:00,78.3,41.6,30.03,SSE,158,5.4,5.4,27,0.00,,---,0.00,VWS V14.01,2013-11-13 18:28:00,
2013-11-13 11:33:00,78.4,42.7,30.03,SSE,158,2.7,2.7,28,0.00,,---,0.00,VWS V14.01,2013-11-13 18:33:00,
2013-11-13 11:38:00,78.3,41.6,30.03,SSW,202,6.0,7.6,27,0.00,,---,0.00,VWS V14.01,2013-11-13 18:38:00,
2013-11-13 11:43:00,78.3,41.6,30.03,WSW,248,5.8,7.8,27,0.00,,---,0.00,VWS V14.01,2013-11-13 18:43:00,
2013-11-13 11:48:00,78.1,41.4,30.03,SE,135,3.6,6.5,27,0.00,,---,0.00,VWS V14.01,2013-11-13 18:48:00,
2013-11-13 11:53:00,78.1,41.4,30.03,SSW,202,3.8,3.8,27,0.00,,---,0.00,VWS V14.01,2013-11-13 18:53:00,
2013-11-13 11:58:00,78.3,41.6,30.03,ESE,112,4.3,4.3,27,0.00,,---,0.00,VWS V14.01,2013-11-13 18:58:00,
2013-11-13 12:03:00,78.4,41.7,30.03,WSW,248,3.8,3.8,27,0.00,,---,0.00,VWS V14.01,2013-11-13 19:03:00,
2013-11-13 12:08:00,78.4,41.7,30.03,SSE,158,5.8,5.8,27,0.00,,---,0.00,VWS V14.01,2013-11-13 19:08:00,
2013-11-13 12:13:00,78.4,40.8,30.03,South,180,5.6,5.6,26,0.00,,---,0.00,VWS V14.01,2013-11-13 19:13:00,
2013-11-13 12:18:00,78.4,40.8,30.03,SW,225,4.0,12.5,26,0.00,,---,0.00,VWS V14.01,2013-11-13 19:18:00,
2013-11-13 12:23:00,79.2,41.4,30.00,SE,135,6.5,6.9,26,0.00,,---,0.00,VWS V14.01,2013-11-13 19:23:00,
2013-11-13 12:28:00,79.5,41.7,30.00,South,180,4.3,4.3,26,0.00,,---,0.00,VWS V14.01,2013-11-13 19:28:00,
2013-11-13 12:33:00,79.5,41.7,30.00,South,180,4.0,4.0,26,0.00,,---,0.00,VWS V14.01,2013-11-13 19:33:00,
2013-11-13 12:38:00,79.0,41.2,30.00,SW,225,4.3,6.5,26,0.00,,---,0.00,VWS V14.01,2013-11-13 19:38:00,
2013-11-13 12:43:00,78.8,41.0,30.00,West,270,8.1,8.1,26,0.00,,---,0.00,VWS V14.01,2013-11-13 19:43:00,
2013-11-13 12:48:00,78.8,40.0,30.00,WSW,248,6.3,6.3,25,0.00,,---,0.00,VWS V14.01,2013-11-13 19:48:00,
2013-11-13 12:53:00,78.8,40.0,29.97,SE,135,4.0,4.0,25,0.00,,---,0.00,VWS V14.01,2013-11-13 19:53:00,
2013-11-13 12:58:00,79.3,40.5,29.97,West,270,5.8,5.8,25,0.00,,---,0.00,VWS V14.01,2013-11-13 19:58:00,
2013-11-13 13:03:00,79.7,41.8,29.97,SW,225,4.7,4.7,26,0.00,,---,0.00,VWS V14.01,2013-11-13 20:03:00,
2013-11-13 13:08:00,79.7,40.8,29.97,ESE,112,6.3,6.3,25,0.00,,---,0.00,VWS V14.01,2013-11-13 20:08:00,
2013-11-13 13:13:00,79.7,40.8,29.97,SSE,158,3.4,3.4,25,0.00,,---,0.00,VWS V14.01,2013-11-13 20:13:00,
2013-11-13 13:18:00,80.1,41.1,29.97,South,180,5.6,6.3,25,0.00,,---,0.00,VWS V14.01,2013-11-13 20:18:00,
2013-11-13 13:23:00,80.1,41.1,29.97,SSW,202,6.7,6.7,25,0.00,,---,0.00,VWS V14.01,2013-11-13 20:23:00,
2013-11-13 13:28:00,80.1,41.1,29.97,SW,225,6.3,6.3,25,0.00,,---,0.00,VWS V14.01,2013-11-13 20:28:00,
2013-11-13 13:33:00,79.9,41.0,29.97,West,270,8.1,8.1,25,0.00,,---,0.00,VWS V14.01,2013-11-13 20:33:00,
2013-11-13 13:38:00,79.9,41.0,29.97,SW,225,6.7,6.7,25,0.00,,---,0.00,VWS V14.01,2013-11-13 20:38:00,
2013-11-13 13:43:00,79.7,40.8,29.97,SW,225,2.7,6.0,25,0.00,,---,0.00,VWS V14.01,2013-11-13 20:43:00,
2013-11-13 13:48:00,80.2,41.3,29.97,SSE,158,5.8,5.8,25,0.00,,---,0.00,VWS V14.01,2013-11-13 20:48:00,
2013-11-13 13:53:00,80.6,40.5,29.97,SSE,158,4.9,4.9,24,0.00,,---,0.00,VWS V14.01,2013-11-13 20:53:00,
2013-11-13 13:58:00,80.8,40.7,29.97,West,270,3.1,4.0,24,0.00,,---,0.00,VWS V14.01,2013-11-13 20:58:00,
2013-11-13 14:03:00,80.6,40.5,29.97,SW,225,6.5,6.5,24,0.00,,---,0.00,VWS V14.01,2013-11-13 21:03:00,
2013-11-13 14:08:00,80.6,40.5,29.97,SSW,202,3.8,5.6,24,0.00,,---,0.00,VWS V14.01,2013-11-13 21:08:00,
2013-11-13 14:13:00,80.8,40.7,29.97,South,180,5.4,8.1,24,0.00,,---,0.00,VWS V14.01,2013-11-13 21:13:00,
2013-11-13 14:18:00,81.0,40.8,29.97,SSW,202,2.7,2.7,24,0.00,,---,0.00,VWS V14.01,2013-11-13 21:18:00,
2013-11-13 14:23:00,81.3,41.1,29.97,South,180,3.8,3.8,24,0.00,,---,0.00,VWS V14.01,2013-11-13 21:23:00,
2013-11-13 14:28:00,81.1,41.0,29.97,South,180,3.4,3.4,24,0.00,,---,0.00,VWS V14.01,2013-11-13 21:28:00,
2013-11-13 14:33:00,81.7,41.4,29.97,SSW,202,2.9,3.1,24,0.00,,---,0.00,VWS V14.01,2013-11-13 21:33:00,
2013-11-13 14:38:00,81.9,41.6,29.97,SSE,158,2.2,2.2,24,0.00,,---,0.00,VWS V14.01,2013-11-13 21:38:00,
2013-11-13 14:43:00,82.0,41.7,29.97,SE,135,4.7,4.7,24,0.00,,---,0.00,VWS V14.01,2013-11-13 21:43:00,
2013-11-13 14:48:00,82.0,41.7,29.97,South,180,3.4,3.8,24,0.00,,---,0.00,VWS V14.01,2013-11-13 21:48:00,
2013-11-13 14:53:00,82.0,41.7,29.97,SSE,158,4.0,4.0,24,0.00,,---,0.00,VWS V14.01,2013-11-13 21:53:00,
2013-11-13 14:58:00,81.9,40.5,29.97,West,270,5.4,5.4,23,0.00,,---,0.00,VWS V14.01,2013-11-13 21:58:00,
2013-11-13 15:03:00,82.0,41.7,29.97,SW,225,2.2,4.7,24,0.00,,---,0.00,VWS V14.01,2013-11-13 22:03:00,
2013-11-13 15:08:00,82.0,40.6,29.97,South,180,2.5,3.6,23,0.00,,---,0.00,VWS V14.01,2013-11-13 22:08:00,
2013-11-13 15:13:00,82.4,40.9,29.94,ESE,112,3.4,5.6,23,0.00,,---,0.00,VWS V14.01,2013-11-13 22:13:00,
2013-11-13 15:18:00,82.4,40.9,29.94,SW,225,3.6,3.6,23,0.00,,---,0.00,VWS V14.01,2013-11-13 22:18:00,
2013-11-13 15:23:00,82.4,40.9,29.94,West,270,3.4,3.4,23,0.00,,---,0.00,VWS V14.01,2013-11-13 22:23:00,
2013-11-13 15:28:00,82.2,40.8,29.94,SE,135,5.4,5.4,23,0.00,,---,0.00,VWS V14.01,2013-11-13 22:28:00,
2013-11-13 15:33:00,82.0,40.6,29.94,SW,225,3.1,4.3,23,0.00,,---,0.00,VWS V14.01,2013-11-13 22:33:00,
2013-11-13 15:38:00,81.7,40.3,29.97,West,270,4.3,4.3,23,0.00,,---,0.00,VWS V14.01,2013-11-13 22:38:00,
2013-11-13 15:43:00,81.7,40.3,29.97,SE,135,1.3,4.0,23,0.00,,---,0.00,VWS V14.01,2013-11-13 22:43:00,
2013-11-13 15:48:00,81.9,40.5,29.97,SW,225,3.6,3.6,23,0.00,,---,0.00,VWS V14.01,2013-11-13 22:48:00,
2013-11-13 15:53:00,81.7,40.3,29.97,South,180,4.0,4.0,23,0.00,,---,0.00,VWS V14.01,2013-11-13 22:53:00,
2013-11-13 15:58:00,81.5,40.2,29.97,SSW,202,1.6,4.3,23,0.00,,---,0.00,VWS V14.01,2013-11-13 22:58:00,
2013-11-13 16:03:00,81.3,40.0,29.97,SE,135,4.5,4.5,23,0.00,,---,0.00,VWS V14.01,2013-11-13 23:03:00,
2013-11-13 16:08:00,81.1,39.9,29.97,SSW,202,2.5,2.5,23,0.00,,---,0.00,VWS V14.01,2013-11-13 23:08:00,
2013-11-13 16:13:00,81.0,39.7,29.97,SSE,158,2.0,2.0,23,0.00,,---,0.00,VWS V14.01,2013-11-13 23:13:00,
2013-11-13 16:18:00,81.0,39.7,29.97,SSW,202,2.0,3.4,23,0.00,,---,0.00,VWS V14.01,2013-11-13 23:18:00,
2013-11-13 16:23:00,80.6,39.4,29.97,SSW,202,2.2,2.2,23,0.00,,---,0.00,VWS V14.01,2013-11-13 23:23:00,
2013-11-13 16:28:00,80.2,39.1,29.97,East,90,2.9,2.9,23,0.00,,---,0.00,VWS V14.01,2013-11-13 23:28:00,
2013-11-13 16:33:00,80.1,39.0,29.97,SSE,158,0.9,1.6,23,0.00,,---,0.00,VWS V14.01,2013-11-13 23:33:00,
2013-11-13 16:38:00,79.7,38.7,29.97,SW,225,3.1,3.1,23,0.00,,---,0.00,VWS V14.01,2013-11-13 23:38:00,
2013-11-13 16:43:00,79.2,39.3,29.97,WSW,248,1.6,3.4,24,0.00,,---,0.00,VWS V14.01,2013-11-13 23:43:00,
2013-11-13 16:48:00,79.0,38.1,29.97,WNW,292,2.5,2.9,23,0.00,,---,0.00,VWS V14.01,2013-11-13 23:48:00,
2013-11-13 16:53:00,78.6,38.8,29.97,WNW,292,0.0,0.9,24,0.00,,---,0.00,VWS V14.01,2013-11-13 23:53:00,
2013-11-13 16:58:00,77.9,38.2,29.97,West,270,1.3,1.3,24,0.00,,---,0.00,VWS V14.01,2013-11-13 23:58:00,
2013-11-13 17:03:00,77.2,37.6,29.97,WSW,248,1.1,1.3,24,0.00,,---,0.00,VWS V14.01,2013-11-14 00:03:00,
2013-11-13 17:08:00,76.6,38.2,29.97,West,270,0.9,1.3,25,0.00,,---,0.00,VWS V14.01,2013-11-14 00:08:00,
2013-11-13 17:13:00,76.1,37.8,29.97,WSW,248,0.0,0.0,25,0.00,,---,0.00,VWS V14.01,2013-11-14 00:13:00,
2013-11-13 17:18:00,75.6,37.3,29.97,WSW,248,0.0,1.1,25,0.00,,---,0.00,VWS V14.01,2013-11-14 00:18:00,
2013-11-13 17:23:00,75.2,37.0,29.97,WSW,248,0.0,0.0,25,0.00,,---,0.00,VWS V14.01,2013-11-14 00:23:00,
2013-11-13 17:28:00,74.5,36.4,29.97,WSW,248,0.0,0.0,25,0.00,,---,0.00,VWS V14.01,2013-11-14 00:28:00,
2013-11-13 17:33:00,74.1,36.1,29.97,West,270,1.3,2.0,25,0.00,,---,0.00,VWS V14.01,2013-11-14 00:33:00,
2013-11-13 17:38:00,73.4,35.5,29.94,WNW,292,1.1,1.1,25,0.00,,---,0.00,VWS V14.01,2013-11-14 00:38:00,
2013-11-13 17:43:00,72.9,36.0,29.94,WNW,292,0.0,0.0,26,0.00,,---,0.00,VWS V14.01,2013-11-14 00:43:00,
2013-11-13 17:48:00,72.5,35.7,29.94,NW,315,2.0,2.5,26,0.00,,---,0.00,VWS V14.01,2013-11-14 00:48:00,
2013-11-13 17:53:00,72.5,36.7,29.94,North,0,0.0,1.3,27,0.00,,---,0.00,VWS V14.01,2013-11-14 00:53:00,
2013-11-13 17:58:00,72.3,36.5,29.94,NNW,338,2.0,2.0,27,0.00,,---,0.00,VWS V14.01,2013-11-14 00:58:00,
2013-11-13 18:03:00,72.1,36.3,29.94,North,0,1.1,1.1,27,0.00,,---,0.00,VWS V14.01,2013-11-14 01:03:00,
2013-11-13 18:08:00,71.6,35.9,29.94,North,0,1.3,1.3,27,0.00,,---,0.00,VWS V14.01,2013-11-14 01:08:00,
2013-11-13 18:13:00,71.2,36.5,29.94,NNW,338,0.0,1.3,28,0.00,,---,0.00,VWS V14.01,2013-11-14 01:13:00,
2013-11-13 18:18:00,71.2,36.5,29.94,NNW,338,1.6,1.6,28,0.00,,---,0.00,VWS V14.01,2013-11-14 01:18:00,
2013-11-13 18:23:00,71.1,36.3,29.94,NNW,338,1.3,2.9,28,0.00,,---,0.00,VWS V14.01,2013-11-14 01:23:00,
2013-11-13 18:28:00,70.7,36.9,29.94,NW,315,2.5,2.5,29,0.00,,---,0.00,VWS V14.01,2013-11-14 01:28:00,
2013-11-13 18:33:00,70.3,36.6,29.94,North,0,3.1,3.1,29,0.00,,---,0.00,VWS V14.01,2013-11-14 01:33:00,
2013-11-13 18:38:00,70.3,36.6,29.94,NNW,338,2.5,2.5,29,0.00,,---,0.00,VWS V14.01,2013-11-14 01:38:00,
2013-11-13 18:43:00,70.2,36.5,29.94,NNW,338,2.0,2.0,29,0.00,,---,0.00,VWS V14.01,2013-11-14 01:43:00,
2013-11-13 18:48:00,70.0,37.2,29.94,North,0,2.5,2.7,30,0.00,,---,0.00,VWS V14.01,2013-11-14 01:48:00,
2013-11-13 18:53:00,69.6,36.8,29.94,North,0,1.6,1.6,30,0.00,,---,0.00,VWS V14.01,2013-11-14 01:53:00,
2013-11-13 18:58:00,69.4,37.5,29.94,North,0,3.4,3.4,31,0.00,,---,0.00,VWS V14.01,2013-11-14 01:58:00,
2013-11-13 19:03:00,69.3,37.4,29.94,North,0,2.0,2.5,31,0.00,,---,0.00,VWS V14.01,2013-11-14 02:03:00,
2013-11-13 19:08:00,69.1,38.0,29.94,North,0,2.7,2.7,32,0.00,,---,0.00,VWS V14.01,2013-11-14 02:08:00,
2013-11-13 19:13:00,68.9,37.8,29.94,NNW,338,2.2,2.2,32,0.00,,---,0.00,VWS V14.01,2013-11-14 02:13:00,
2013-11-13 19:18:00,68.9,37.8,29.94,North,0,2.0,2.0,32,0.00,,---,0.00,VWS V14.01,2013-11-14 02:18:00,
2013-11-13 19:23:00,68.7,37.7,29.94,NNW,338,3.1,3.1,32,0.00,,---,0.00,VWS V14.01,2013-11-14 02:23:00,
2013-11-13 19:28:00,68.4,37.4,29.94,NNW,338,1.6,2.2,32,0.00,,---,0.00,VWS V14.01,2013-11-14 02:28:00,
2013-11-13 19:33:00,68.2,37.2,29.94,NE,45,1.3,1.3,32,0.00,,---,0.00,VWS V14.01,2013-11-14 02:33:00,
2013-11-13 19:38:00,68.0,37.1,29.94,NNE,22,1.1,1.6,32,0.00,,---,0.00,VWS V14.01,2013-11-14 02:38:00,
2013-11-13 19:43:00,67.8,37.7,29.94,East,90,0.0,3.1,33,0.00,,---,0.00,VWS V14.01,2013-11-14 02:43:00,
2013-11-13 19:48:00,67.6,37.5,29.94,North,0,2.0,2.0,33,0.00,,---,0.00,VWS V14.01,2013-11-14 02:48:00,
2013-11-13 19:53:00,67.5,37.4,29.94,East,90,0.0,1.1,33,0.00,,---,0.00,VWS V14.01,2013-11-14 02:53:00,
2013-11-13 19:58:00,67.5,37.4,29.94,NE,45,1.3,1.3,33,0.00,,---,0.00,VWS V14.01,2013-11-14 02:58:00,
2013-11-13 20:03:00,67.3,37.2,29.94,East,90,0.9,0.9,33,0.00,,---,0.00,VWS V14.01,2013-11-14 03:03:00,
2013-11-13 20:08:00,66.9,36.9,29.97,NE,45,1.6,1.6,33,0.00,,---,0.00,VWS V14.01,2013-11-14 03:08:00,
2013-11-13 20:13:00,66.9,36.9,29.97,NE,45,2.0,2.0,33,0.00,,---,0.00,VWS V14.01,2013-11-14 03:13:00,
2013-11-13 20:18:00,66.7,36.8,29.97,WNW,292,1.3,1.3,33,0.00,,---,0.00,VWS V14.01,2013-11-14 03:18:00,
2013-11-13 20:23:00,66.6,36.6,29.97,NE,45,2.7,2.7,33,0.00,,---,0.00,VWS V14.01,2013-11-14 03:23:00,
2013-11-13 20:28:00,66.4,36.4,29.97,ESE,112,1.6,1.6,33,0.00,,---,0.00,VWS V14.01,2013-11-14 03:28:00,
2013-11-13 20:33:00,66.0,36.9,29.97,East,90,1.6,1.6,34,0.00,,---,0.00,VWS V14.01,2013-11-14 03:33:00,
2013-11-13 20:38:00,65.7,36.6,29.97,East,90,1.3,2.5,34,0.00,,---,0.00,VWS V14.01,2013-11-14 03:38:00,
2013-11-13 20:44:00,65.3,36.2,29.97,SE,135,1.1,1.1,34,0.00,,---,0.00,VWS V14.01,2013-11-14 03:44:00,
2013-11-13 20:49:00,65.1,36.1,29.97,ESE,112,2.9,2.9,34,0.00,,---,0.00,VWS V14.01,2013-11-14 03:49:00,
2013-11-13 20:54:00,64.9,35.9,30.00,East,90,1.1,3.4,34,0.00,,---,0.00,VWS V14.01,2013-11-14 03:54:00,
2013-11-13 20:59:00,65.3,37.0,30.00,NNE,22,1.3,2.9,35,0.00,,---,0.00,VWS V14.01,2013-11-14 03:59:00,
2013-11-13 21:04:00,65.3,37.0,30.00,SE,135,1.1,1.1,35,0.00,,---,0.00,VWS V14.01,2013-11-14 04:04:00,
2013-11-13 21:09:00,65.5,37.1,30.00,NNE,22,1.6,3.1,35,0.00,,---,0.00,VWS V14.01,2013-11-14 04:09:00,
2013-11-13 21:14:00,65.5,37.1,30.00,North,0,1.3,3.1,35,0.00,,---,0.00,VWS V14.01,2013-11-14 04:14:00,
2013-11-13 21:19:00,65.5,37.1,30.00,North,0,1.6,2.5,35,0.00,,---,0.00,VWS V14.01,2013-11-14 04:19:00,
2013-11-13 21:24:00,65.3,37.0,30.00,North,0,2.7,2.7,35,0.00,,---,0.00,VWS V14.01,2013-11-14 04:24:00,
2013-11-13 21:29:00,65.3,37.0,30.00,NE,45,3.4,3.4,35,0.00,,---,0.00,VWS V14.01,2013-11-14 04:29:00,
2013-11-13 21:34:00,65.3,37.0,30.00,NNW,338,2.0,3.4,35,0.00,,---,0.00,VWS V14.01,2013-11-14 04:34:00,
2013-11-13 21:39:00,65.5,37.1,30.00,NNW,338,3.8,4.0,35,0.00,,---,0.00,VWS V14.01,2013-11-14 04:39:00,
2013-11-13 21:44:00,65.5,37.1,30.00,East,90,2.5,2.5,35,0.00,,---,0.00,VWS V14.01,2013-11-14 04:44:00,
2013-11-13 21:49:00,65.1,36.8,30.00,ENE,68,1.1,1.3,35,0.00,,---,0.00,VWS V14.01,2013-11-14 04:49:00,
2013-11-13 21:54:00,64.6,36.3,29.97,East,90,1.3,1.3,35,0.00,,---,0.00,VWS V14.01,2013-11-14 04:54:00,
2013-11-13 21:59:00,63.9,35.7,29.97,ESE,112,1.6,1.6,35,0.00,,---,0.00,VWS V14.01,2013-11-14 04:59:00,
2013-11-13 22:01:00,63.7,35.5,29.97,East,90,1.6,1.6,35,0.00,,---,0.00,VWS V14.01,2013-11-14 05:01:00,
2013-11-13 22:04:00,63.5,35.4,29.97,East,90,2.7,3.1,35,0.00,,---,0.00,VWS V14.01,2013-11-14 05:04:00,
2013-11-13 22:09:00,63.0,34.9,29.97,East,90,1.3,1.3,35,0.00,,---,0.00,VWS V14.01,2013-11-14 05:09:00,
2013-11-13 22:14:00,62.4,35.1,29.97,East,90,1.6,2.0,36,0.00,,---,0.00,VWS V14.01,2013-11-14 05:14:00,
2013-11-13 22:19:00,62.1,34.8,29.97,ENE,68,3.1,3.1,36,0.00,,---,0.00,VWS V14.01,2013-11-14 05:19:00,
2013-11-13 22:24:00,61.7,34.5,30.00,East,90,1.6,1.6,36,0.00,,---,0.00,VWS V14.01,2013-11-14 05:24:00,
2013-11-13 22:29:00,61.3,34.2,30.00,East,90,2.7,2.7,36,0.00,,---,0.00,VWS V14.01,2013-11-14 05:29:00,
2013-11-13 22:34:00,61.2,34.7,30.00,ESE,112,2.5,2.9,37,0.00,,---,0.00,VWS V14.01,2013-11-14 05:34:00,
2013-11-13 22:39:00,61.0,34.5,30.00,ESE,112,2.0,2.7,37,0.00,,---,0.00,VWS V14.01,2013-11-14 05:39:00,
2013-11-13 22:44:00,60.6,34.2,30.00,ENE,68,2.5,2.5,37,0.00,,---,0.00,VWS V14.01,2013-11-14 05:44:00,
2013-11-13 22:49:00,60.6,34.9,30.00,ENE,68,2.5,3.4,38,0.00,,---,0.00,VWS V14.01,2013-11-14 05:49:00,
2013-11-13 22:54:00,60.4,34.7,30.00,East,90,3.8,3.8,38,0.00,,---,0.00,VWS V14.01,2013-11-14 05:54:00,
2013-11-13 23:00:00,60.3,34.6,30.00,East,90,2.7,2.7,38,0.00,,---,0.00,VWS V14.01,2013-11-14 06:00:00,
2013-11-13 23:05:00,60.3,35.2,30.00,East,90,3.1,3.4,39,0.00,,---,0.00,VWS V14.01,2013-11-14 06:05:00,
2013-11-13 23:10:00,60.3,35.2,30.00,East,90,3.1,3.1,39,0.00,,---,0.00,VWS V14.01,2013-11-14 06:10:00,
2013-11-13 23:15:00,60.4,36.7,30.00,East,90,1.1,1.1,41,0.00,,---,0.00,VWS V14.01,2013-11-14 06:15:00,
2013-11-13 23:20:00,61.3,37.5,29.97,NNW,338,1.6,1.6,41,0.00,,---,0.00,VWS V14.01,2013-11-14 06:20:00,
2013-11-13 23:25:00,61.7,37.8,29.97,ESE,112,2.2,2.2,41,0.00,,---,0.00,VWS V14.01,2013-11-14 06:25:00,
2013-11-13 23:30:00,62.2,37.6,29.97,North,0,1.6,1.6,40,0.00,,---,0.00,VWS V14.01,2013-11-14 06:30:00,
2013-11-13 23:35:00,62.4,37.8,29.97,North,0,2.0,2.0,40,0.00,,---,0.00,VWS V14.01,2013-11-14 06:35:00,
2013-11-13 23:40:00,62.6,37.3,29.97,NNE,22,2.0,2.9,39,0.00,,---,0.00,VWS V14.01,2013-11-14 06:40:00,
2013-11-13 23:45:00,62.6,37.3,29.97,East,90,2.9,2.9,39,0.00,,---,0.00,VWS V14.01,2013-11-14 06:45:00,
2013-11-13 23:50:00,62.4,37.2,29.97,ESE,112,2.7,3.4,39,0.00,,---,0.00,VWS V14.01,2013-11-14 06:50:00,
2013-11-13 23:55:00,62.2,36.3,29.97,East,90,3.6,3.6,38,0.00,,---,0.00,VWS V14.01,2013-11-14 06:55:00,